TimePDT,TemperatureF,Dew PointF,Humidity,Sea Level PressureIn,VisibilityMPH,Wind Direction,Wind SpeedMPH,Gust SpeedMPH,PrecipitationIn,Events,Conditions,WindDirDegrees,DateUTC
12:53 AM,53.1,48.9,86,29.88,10.0,Calm,Calm,-,N/A,,Clear,0,2013-06-23 07:53:00
1:53 AM,57.0,50.0,77,29.86,10.0,NNW,3.5,-,N/A,,Clear,340,2013-06-23 08:53:00
2:53 AM,59.0,52.0,78,29.84,10.0,Variable,3.5,-,N/A,,Clear,0,2013-06-23 09:53:00
3:53 AM,57.9,52.0,81,29.83,10.0,Calm,Calm,-,N/A,,Clear,0,2013-06-23 10:53:00
4:53 AM,57.9,53.1,84,29.82,10.0,Calm,Calm,-,N/A,,Clear,0,2013-06-23 11:53:00
5:53 AM,59.0,54.0,83,29.81,10.0,NNW,3.5,-,N/A,,Clear,340,2013-06-23 12:53:00
6:53 AM,59.0,54.0,83,29.81,10.0,Variable,3.5,-,N/A,,Mostly Cloudy,0,2013-06-23 13:53:00
7:53 AM,60.1,55.0,83,29.80,10.0,North,3.5,-,N/A,,Overcast,350,2013-06-23 14:53:00
8:53 AM,62.1,55.9,80,29.80,10.0,Calm,Calm,-,N/A,,Overcast,0,2013-06-23 15:53:00
9:53 AM,62.1,57.0,84,29.80,10.0,East,3.5,-,0.00,Rain,Light Rain,90,2013-06-23 16:53:00
10:53 AM,63.0,57.0,81,29.78,10.0,North,4.6,-,0.00,,Overcast,10,2013-06-23 17:53:00
11:53 AM,64.0,57.0,78,29.78,10.0,Calm,Calm,-,0.00,Rain,Light Rain,0,2013-06-23 18:53:00
12:53 PM,64.0,55.9,75,29.76,10.0,ENE,3.5,-,0.00,,Overcast,60,2013-06-23 19:53:00
1:53 PM,64.9,57.9,78,29.75,10.0,North,3.5,-,0.00,Rain,Light Rain,360,2013-06-23 20:53:00
2:53 PM,64.9,57.0,75,29.74,10.0,North,4.6,-,0.00,,Overcast,10,2013-06-23 21:53:00
3:53 PM,66.0,57.9,75,29.72,10.0,Variable,3.5,-,0.00,,Overcast,0,2013-06-23 22:53:00
4:53 PM,66.0,57.9,75,29.70,10.0,NNW,3.5,-,N/A,,Overcast,340,2013-06-23 23:53:00
5:53 PM,64.0,57.0,78,29.68,10.0,NNW,4.6,-,0.00,,Overcast,330,2013-06-24 00:53:00
6:53 PM,63.0,57.0,81,29.67,10.0,NNW,3.5,-,N/A,,Overcast,340,2013-06-24 01:53:00
7:53 PM,61.0,57.9,90,29.66,10.0,NNW,3.5,-,0.00,Rain,Light Rain,340,2013-06-24 02:53:00
8:53 PM,60.1,57.9,93,29.64,8.0,Calm,Calm,-,0.00,Rain,Light Rain,0,2013-06-24 03:53:00
9:53 PM,60.1,57.9,93,29.63,10.0,Calm,Calm,-,0.00,Rain,Light Rain,0,2013-06-24 04:53:00
10:53 PM,60.1,57.9,93,29.62,10.0,Calm,Calm,-,0.00,,Overcast,0,2013-06-24 05:53:00
11:53 PM,59.0,57.9,96,29.62,10.0,Calm,Calm,-,0.00,,Overcast,0,2013-06-24 06:53:00